Location: Huntsville
(41.2590°N, 111.7678°W)
Time: 23:02:30
(UTC+00:00)

SR - Pass Details

Date: 16 June 2021
Orbit: 577 x 878 km, 66.7° (Epoch: 29 July)

Event Time Altitude Azimuth Distance (km) Brightness Sun altitude
Rises 08:30:26 0° 338° (NNW) 3,328 ? -23.8°
Reaches altitude 10° 08:33:24 10° 351° (N) 2,342 ? -23.6°
Maximum altitude 08:37:44 25° 46° (NE) 1,487 ? -23.4°
Drops below altitude 10° 08:41:47 10° 101° (E) 2,167 ? -23.1°
Sets 08:44:24 0° 115° (ESE) 3,025 ? -23.0°
